TimeCST,TemperatureF,Dew PointF,Humidity,Sea Level PressureIn,VisibilityMPH,Wind Direction,Wind SpeedMPH,Gust SpeedMPH,PrecipitationIn,Events,Conditions,WindDirDegrees,DateUTC
12:53 AM,32.0,28.0,85,30.21,8.0,SE,16.1,-,N/A,,Scattered Clouds,140,2013-03-09 06:53:00
1:53 AM,32.0,28.0,85,30.17,8.0,SE,17.3,-,N/A,,Mostly Cloudy,130,2013-03-09 07:53:00
2:53 AM,33.1,28.9,85,30.15,8.0,SSE,17.3,-,N/A,,Overcast,150,2013-03-09 08:53:00
3:53 AM,34.0,28.9,82,30.12,8.0,SSE,21.9,-,N/A,,Overcast,150,2013-03-09 09:53:00
4:53 AM,34.0,28.9,82,30.11,8.0,SSE,19.6,-,N/A,,Overcast,150,2013-03-09 10:53:00
5:53 AM,34.0,32.0,92,30.12,5.0,South,15.0,-,0.02,,Overcast,170,2013-03-09 11:53:00
6:53 AM,34.0,32.0,92,30.12,3.0,SSE,16.1,-,0.03,Rain,Light Rain,160,2013-03-09 12:53:00
7:53 AM,34.0,32.0,92,30.08,5.0,SSE,19.6,-,0.03,,Overcast,160,2013-03-09 13:53:00
8:53 AM,34.0,32.0,92,30.04,5.0,SSE,21.9,28.8,N/A,,Overcast,160,2013-03-09 14:53:00
9:04 AM,33.8,32.0,93,30.00,5.0,SSE,21.9,-,N/A,,Overcast,160,2013-03-09 15:04:00
9:53 AM,34.0,32.0,92,30.01,5.0,SSE,23.0,-,N/A,,Overcast,160,2013-03-09 15:53:00
10:09 AM,33.8,33.8,100,29.96,5.0,SSE,21.9,-,N/A,,Overcast,160,2013-03-09 16:09:00
10:36 AM,35.6,33.8,93,29.96,4.0,SSE,18.4,-,N/A,,Overcast,160,2013-03-09 16:36:00
10:53 AM,34.0,33.1,96,29.99,3.0,SSE,18.4,28.8,N/A,,Overcast,160,2013-03-09 16:53:00
11:01 AM,33.8,33.8,100,29.95,2.5,SSE,18.4,-,N/A,,Overcast,160,2013-03-09 17:01:00
11:28 AM,33.8,33.8,100,29.94,1.5,SSE,20.7,-,N/A,,Overcast,160,2013-03-09 17:28:00
11:53 AM,34.0,34.0,100,29.96,1.5,SSE,19.6,24.2,N/A,,Overcast,160,2013-03-09 17:53:00
12:53 PM,34.0,34.0,100,29.92,1.8,SSE,19.6,-,N/A,,Overcast,160,2013-03-09 18:53:00
1:27 PM,33.8,33.8,100,29.87,2.0,South,18.4,-,0.03,,Overcast,170,2013-03-09 19:27:00
1:46 PM,35.6,35.6,100,29.86,1.8,South,17.3,-,0.04,,Overcast,170,2013-03-09 19:46:00
1:53 PM,35.1,35.1,100,29.89,1.5,South,16.1,-,0.05,Rain,Rain,170,2013-03-09 19:53:00
2:27 PM,35.6,35.6,100,29.84,2.0,SSE,15.0,-,0.04,,Overcast,160,2013-03-09 20:27:00
2:53 PM,35.1,35.1,100,29.86,1.8,SSE,15.0,-,0.06,Rain,Light Rain,160,2013-03-09 20:53:00
3:15 PM,35.6,35.6,100,29.82,2.5,SSE,15.0,-,0.04,Rain,Rain,160,2013-03-09 21:15:00
3:53 PM,35.1,35.1,100,29.83,2.5,SSE,16.1,-,0.08,Rain,Rain,160,2013-03-09 21:53:00
4:23 PM,35.6,35.6,100,29.79,1.5,SSE,16.1,-,0.03,Rain,Light Rain,150,2013-03-09 22:23:00
4:53 PM,35.1,35.1,100,29.82,1.2,SSE,19.6,-,0.09,Rain,Rain,150,2013-03-09 22:53:00
5:50 PM,35.6,35.6,100,29.80,1.8,SSE,18.4,-,0.16,Rain,Light Rain,150,2013-03-09 23:50:00
5:53 PM,35.1,35.1,100,29.83,2.0,SSE,18.4,-,0.16,Rain,Light Rain,150,2013-03-09 23:53:00
6:12 PM,35.6,35.6,100,29.79,3.0,SSE,19.6,-,0.04,Rain,Light Rain,150,2013-03-10 00:12:00
6:53 PM,36.0,36.0,100,29.82,3.0,SSE,16.1,-,0.18,Rain,Rain,150,2013-03-10 00:53:00
7:53 PM,35.1,35.1,100,29.81,3.0,SSE,15.0,-,0.11,,Overcast,160,2013-03-10 01:53:00
8:06 PM,35.6,35.6,100,29.78,2.5,SSE,16.1,-,0.01,Rain,Light Rain,160,2013-03-10 02:06:00
8:28 PM,35.6,35.6,100,29.79,2.5,SSE,13.8,-,0.01,,Overcast,160,2013-03-10 02:28:00
8:53 PM,36.0,36.0,100,29.82,3.0,SSE,11.5,-,0.02,,Overcast,160,2013-03-10 02:53:00
9:06 PM,35.6,35.6,100,29.79,3.0,SSE,12.7,-,0.01,,Overcast,160,2013-03-10 03:06:00
9:18 PM,35.6,35.6,100,29.80,2.5,South,10.4,-,0.01,Rain,Light Rain,170,2013-03-10 03:18:00
9:30 PM,35.6,35.6,100,29.79,2.5,SSE,9.2,-,0.04,Rain,Rain,160,2013-03-10 03:30:00
9:53 PM,36.0,36.0,100,29.82,2.5,SSE,13.8,-,0.10,Rain,Rain,150,2013-03-10 03:53:00
10:06 PM,35.6,35.6,100,29.77,3.0,SE,15.0,-,0.02,Rain,Light Rain,140,2013-03-10 04:06:00
10:53 PM,37.0,37.0,100,29.78,3.0,SSE,12.7,-,0.04,,Overcast,150,2013-03-10 04:53:00
11:53 PM,39.0,37.9,96,29.77,5.0,SSE,12.7,21.9,0.02,,Overcast,160,2013-03-10 05:53:00